FW6558 Weather Reports


Display with metric or nautical units.
time (UTC)temp
F
wind
direction
speed
MPH
gust
MPH
rain 1hr
in
rain 24hr
in
rain mn
in
humidity
%
barometer
mb
20260508030807 47 279 9.0 12.0 0.00 0.01 0.01 83 1017.0
20260508030306 47 268 9.0 10.0 0.00 0.01 0.01 82 1016.8
20260508025807 47 285 9.0 12.0 0.00 0.01 0.01 82 1016.8
20260508025306 47 272 9.0 12.0 0.00 0.02 0.01 82 1016.9
20260508024806 47 275 10.0 14.0 0.00 0.02 0.01 81 1016.9
20260508024307 47 278 9.0 14.0 0.00 0.02 0.01 81 1016.6
20260508023806 47 270 10.0 14.0 0.00 0.02 0.01 80 1016.6
20260508023307 48 277 11.0 14.0 0.00 0.03 0.01 80 1016.7
20260508022307 47 271 10.0 14.0 0.00 0.03 0.01 78 1016.5
20260508021807 48 285 10.0 14.0 0.00 0.03 0.01 78 1016.3
20260508021306 48 276 10.0 14.0 0.00 0.03 0.01 78 1016.2
20260508020807 48 273 10.0 14.0 0.00 0.03 0.01 78 1016.1
20260508020306 48 271 10.0 15.0 0.00 0.03 0.01 77 1016.2
20260508015806 48 269 10.0 14.0 0.00 0.03 0.01 78 1016.2
20260508015307 48 276 9.0 13.0 0.00 0.03 0.01 78 1016.0
20260508014807 48 276 9.0 14.0 0.00 0.03 0.01 78 1015.9
20260508014306 48 252 10.0 13.0 0.00 0.03 0.01 78 1015.9
20260508013806 48 279 9.0 13.0 0.00 0.03 0.01 79 1015.8
20260508013306 48 272 10.0 14.0 0.00 0.03 0.01 78 1015.7
20260508012806 48 266 10.0 13.0 0.00 0.03 0.01 78 1015.5
20260508012307 48 261 9.0 13.0 0.00 0.03 0.01 78 1015.3
20260508011807 48 282 9.0 13.0 0.00 0.03 0.01 78 1015.5
20260508011306 48 265 9.0 14.0 0.00 0.03 0.01 79 1015.3
20260508010306 48 268 10.0 14.0 0.00 0.03 0.01 79 1015.3
20260508005806 48 274 8.0 14.0 0.00 0.03 0.01 79 1015.0
20260508005306 48 268 9.0 14.0 0.00 0.03 0.01 79 1014.8
20260508004806 48 279 11.0 14.0 0.00 0.03 0.01 79 1014.8
20260508003807 48 268 11.0 16.0 0.00 0.03 0.01 80 1015.1
20260508003306 49 273 11.0 16.0 0.00 0.03 0.01 79 1014.8
20260508002806 48 268 12.0 16.0 0.00 0.03 0.01 79 1014.9
20260508002307 49 273 10.0 14.0 0.00 0.03 0.01 79 1015.1
20260508001306 49 264 8.0 14.0 0.00 0.03 0.01 77 1014.9
20260508000807 49 276 7.0 15.0 0.00 0.03 0.01 76 1015.0
20260508000306 49 261 9.0 15.0 0.00 0.03 0.01 76 1014.9
20260507235307 50 263 10.0 16.0 0.00 0.03 0.01 75 1014.9
20260507234806 50 265 10.0 17.0 0.00 0.03 0.01 73 1014.7
20260507234306 50 272 11.0 18.0 0.00 0.03 0.01 75 1014.7
20260507233306 51 290 10.0 13.0 0.00 0.03 0.01 74 1014.3
20260507232806 50 293 10.0 20.0 0.00 0.03 0.01 74 1014.5
20260507231806 51 286 13.0 20.0 0.00 0.03 0.01 74 1014.3
20260507231306 51 290 14.0 23.0 0.00 0.03 0.01 75 1014.2
20260507230806 51 287 12.0 20.0 0.00 0.03 0.01 74 1014.0
20260507230306 52 297 12.0 20.0 0.00 0.03 0.01 73 1013.7
20260507225306 51 307 11.0 18.0 0.00 0.03 0.01 75 1013.9
20260507224806 50 282 13.0 17.0 0.00 0.03 0.01 77 1014.2
20260507224306 50 284 12.0 18.0 0.00 0.03 0.01 77 1013.9
20260507223806 50 286 15.0 18.0 0.00 0.03 0.01 77 1013.9
20260507223306 50 268 12.0 21.0 0.00 0.03 0.01 77 1013.9
20260507222806 50 272 14.0 22.0 0.00 0.03 0.01 77 1013.9
20260507222306 50 278 12.0 18.0 0.00 0.03 0.01 77 1013.7
20260507221806 50 285 15.0 25.0 0.00 0.03 0.01 77 1013.6
20260507221306 50 274 17.0 22.0 0.00 0.03 0.01 78 1013.6
20260507220806 50 280 14.0 20.0 0.00 0.03 0.01 77 1013.3
20260507220305 50 282 13.0 18.0 0.00 0.03 0.01 78 1013.6
20260507215307 51 278 12.0 17.0 0.00 0.03 0.01 77 1013.2
20260507214806 52 284 10.0 16.0 0.00 0.03 0.01 77 1013.1
20260507214306 51 296 9.0 17.0 0.00 0.03 0.01 77 1013.3
20260507213806 51 280 10.0 18.0 0.00 0.03 0.01 78 1013.1
20260507213306 51 280 16.0 18.0 0.00 0.03 0.01 76 1013.1
20260507212806 51 311 10.0 18.0 0.00 0.03 0.01 77 1013.0
20260507212307 51 283 10.0 20.0 0.00 0.03 0.01 79 1013.4
20260507211806 50 271 11.0 18.0 0.00 0.03 0.01 79 1013.3
20260507211305 50 265 13.0 20.0 0.00 0.03 0.01 80 1013.3
20260507210806 50 265 12.0 18.0 0.00 0.03 0.01 82 1013.5
20260507210306 50 274 13.0 18.0 0.00 0.03 0.01 82 1013.7
20260507205307 50 276 14.0 23.0 0.00 0.03 0.01 82 1013.4
20260507204806 50 295 12.0 21.0 0.00 0.03 0.01 81 1013.4
20260507204305 51 301 14.0 26.0 0.00 0.03 0.01 79 1012.5
20260507203806 52 297 14.0 24.0 0.00 0.03 0.01 78 1012.3
20260507203306 52 277 14.0 24.0 0.00 0.03 0.01 77 1012.1
20260507202307 53 303 16.0 22.0 0.00 0.03 0.01 78 1012.0
20260507201306 53 298 14.0 20.0 0.00 0.03 0.01 80 1011.6
20260507200806 54 293 12.0 22.0 0.00 0.03 0.01 80 1011.4
20260507195806 54 280 13.0 17.0 0.00 0.03 0.01 78 1011.4
20260507195306 54 272 13.0 17.0 0.00 0.03 0.01 80 1011.6
20260507194805 54 296 11.0 18.0 0.00 0.03 0.01 80 1011.5
20260507194305 54 289 13.0 18.0 0.00 0.03 0.01 78 1011.7
20260507193805 53 267 10.0 16.0 0.00 0.03 0.01 82 1011.8
20260507192306 54 295 11.0 15.0 0.00 0.03 0.01 81 1011.9
20260507191806 54 272 11.0 17.0 0.00 0.03 0.01 83 1011.9
20260507191305 54 284 11.0 16.0 0.00 0.03 0.01 84 1011.9
20260507190806 55 272 12.0 16.0 0.00 0.03 0.01 82 1011.7
20260507190305 57 306 11.0 16.0 0.00 0.03 0.01 77 1011.2
20260507185805 56 304 9.0 18.0 0.00 0.03 0.01 82 1011.4
20260507185306 57 290 11.0 18.0 0.00 0.03 0.01 79 1011.4
20260507184805 57 311 9.0 17.0 0.00 0.03 0.01 81 1011.1
20260507184305 57 311 9.0 15.0 0.00 0.03 0.01 79 1011.3
20260507182307 57 282 8.0 14.0 0.00 0.03 0.01 81 1011.3
20260507181805 58 260 5.0 13.0 0.00 0.03 0.01 82 1011.2
20260507181305 57 315 6.0 9.0 0.00 0.03 0.01 84 1011.3
20260507180806 56 301 6.0 12.0 0.00 0.03 0.01 87 1011.8
20260507180305 54 314 4.0 9.0 0.00 0.03 0.01 89 1012.3
20260507175307 54 310 5.0 9.0 0.00 0.03 0.01 89 1012.2
20260507174305 54 324 2.0 10.0 0.00 0.03 0.01 88 1012.0
20260507173805 54 221 1.0 10.0 0.00 0.03 0.01 89 1012.1
20260507173305 54 311 2.0 8.0 0.00 0.03 0.01 88 1012.2
20260507172805 54 295 5.0 9.0 0.00 0.03 0.01 87 1012.1
20260507172307 55 304 4.0 7.0 0.00 0.03 0.01 85 1011.7
20260507171805 55 324 1.0 2.0 0.00 0.03 0.01 87 1011.8
20260507171305 55 315 1.0 2.0 0.00 0.03 0.01 86 1011.6
20260507170805 54 43 1.0 5.0 0.00 0.03 0.01 88 1012.0
20260507170305 54 26 3.0 6.0 0.00 0.03 0.01 90 1012.3
20260507164805 53 52 3.0 5.0 0.00 0.03 0.01 90 1012.3
20260507163305 53 328 2.0 5.0 0.00 0.03 0.01 90 1012.3
20260507162307 53 21 2.0 5.0 0.00 0.03 0.01 90 1012.3
20260507161805 54 31 2.0 5.0 0.00 0.04 0.01 90 1012.0
20260507160805 54 303 1.0 2.0 0.00 0.06 0.01 90 1012.4
20260507160305 54 17 2.0 3.0 0.00 0.06 0.01 90 1012.4
20260507155306 53 302 2.0 5.0 0.00 0.06 0.01 92 1012.7
20260507154805 53 291 2.0 6.0 0.00 0.06 0.01 93 1012.7
20260507153805 53 304 5.0 7.0 0.00 0.06 0.01 91 1012.9
20260507153305 54 306 3.0 6.0 0.00 0.06 0.01 90 1012.8
20260507152805 54 14 1.0 3.0 0.00 0.06 0.01 91 1012.6
20260507152306 54 19 1.0 2.0 0.00 0.06 0.01 91 1012.4
20260507151805 54 356 1.0 2.0 0.00 0.06 0.01 92 1012.3
20260507151305 54 17 1.0 2.0 0.00 0.06 0.01 93 1012.6
20260507150805 53 17 1.0 2.0 0.00 0.06 0.01 93 1012.8
20260507150305 53 21 1.0 2.0 0.00 0.06 0.01 93 1012.5
20260507145306 53 317 1.0 3.0 0.00 0.06 0.01 92 1012.7
20260507144805 53 300 0.0 3.0 0.00 0.06 0.01 92 1012.5
20260507144304 53 31 1.0 3.0 0.00 0.06 0.01 92 1012.5
20260507143804 53 4 1.0 3.0 0.00 0.06 0.01 93 1012.5
20260507142805 54 21 1.0 3.0 0.00 0.06 0.01 92 1012.4
20260507142307 54 355 0.0 2.0 0.00 0.06 0.01 92 1012.3
20260507141805 54 16 0.0 3.0 0.00 0.06 0.01 93 1012.1
20260507141304 54 22 1.0 3.0 0.00 0.06 0.01 93 1012.1
20260507140804 54 17 1.0 2.0 0.00 0.06 0.01 92 1012.4
20260507140305 55 28 1.0 3.0 0.00 0.06 0.01 93 1012.2
20260507135805 55 41 2.0 5.0 0.00 0.06 0.01 94 1012.1
20260507134804 54 31 2.0 3.0 0.00 0.06 0.01 94 1012.5
20260507134304 54 33 2.0 2.0 0.00 0.06 0.01 94 1012.4
20260507133304 54 238 1.0 5.0 0.00 0.07 0.01 95 1012.3
20260507132804 55 34 2.0 6.0 0.00 0.07 0.01 95 1012.2
20260507132307 55 25 2.0 6.0 0.00 0.08 0.01 94 1012.0
20260507131804 55 47 3.0 6.0 0.00 0.08 0.01 95 1011.8
20260507131304 55 46 3.0 6.0 0.00 0.09 0.01 95 1011.6
20260507130804 55 55 5.0 6.0 0.00 0.10 0.01 95 1011.6
20260507130304 55 36 4.0 6.0 0.00 0.10 0.01 95 1011.8
20260507125804 55 70 3.0 7.0 0.00 0.10 0.01 96 1012.2
20260507124804 55 70 5.0 7.0 0.00 0.10 0.01 97 1012.0
20260507124304 54 57 5.0 7.0 0.00 0.10 0.01 97 1012.0
20260507123804 54 71 5.0 6.0 0.00 0.10 0.01 97 1012.5
20260507123304 54 57 2.0 5.0 0.00 0.10 0.01 97 1012.5
20260507122804 55 66 2.0 2.0 0.00 0.10 0.01 97 1012.7
20260507121804 55 9 1.0 2.0 0.00 0.10 0.01 98 1013.0
20260507121304 55 78 1.0 2.0 0.00 0.11 0.01 98 1012.9
20260507120804 54 108 0.0 1.0 0.00 0.11 0.01 98 1012.9
20260507120304 54 107 1.0 2.0 0.00 0.11 0.01 98 1012.8
20260507115804 54 67 2.0 3.0 0.00 0.11 0.01 98 1012.6
20260507114804 54 215 0.0 1.0 0.00 0.14 0.01 98 1012.6
20260507114304 54 210 0.0 2.0 0.00 0.16 0.01 98 1012.8
20260507113803 54 179 1.0 2.0 0.00 0.20 0.01 98 1012.6
20260507113304 54 63 0.0 3.0 0.00 0.21 0.01 98 1012.5
20260507112804 54 63 2.0 3.0 0.00 0.22 0.01 97 1012.0
20260507112307 54 91 2.0 3.0 0.00 0.22 0.01 97 1012.3
20260507111804 54 94 2.0 2.0 0.00 0.22 0.01 97 1012.3
20260507111304 55 106 1.0 2.0 0.00 0.22 0.01 97 1012.2
20260507110804 55 106 1.0 1.0 0.00 0.22 0.01 97 1011.8
20260507110303 55 107 1.0 1.0 0.00 0.22 0.01 97 1012.0
20260507105804 55 109 1.0 1.0 0.00 0.22 0.01 97 1012.3
20260507105306 55 109 1.0 1.0 0.00 0.22 0.01 97 1012.1
20260507104804 55 109 0.0 0.0 0.00 0.22 0.01 97 1012.1
20260507104304 55 109 0.0 1.0 0.00 0.22 0.01 97 1012.0
20260507103803 55 109 0.0 2.0 0.00 0.22 0.01 97 1012.0
20260507102804 54 108 0.0 2.0 0.00 0.22 0.01 97 1011.8
20260507102306 54 79 1.0 2.0 0.00 0.22 0.01 97 1011.8
20260507101804 54 53 1.0 2.0 0.00 0.22 0.01 97 1012.4
20260507101304 55 52 1.0 5.0 0.00 0.22 0.01 97 1011.9
20260507100803 55 45 3.0 5.0 0.00 0.22 0.01 96 1011.6
20260507100304 56 33 3.0 5.0 0.00 0.22 0.01 97 1011.6
20260507095803 56 280 0.0 2.0 0.00 0.22 0.01 97 1011.7
20260507095306 56 232 0.0 2.0 0.00 0.22 0.01 97 1011.6
20260507094803 56 291 1.0 2.0 0.00 0.22 0.01 97 1011.5
20260507093804 56 285 2.0 3.0 0.01 0.22 0.01 96 1011.4
20260507092306 56 247 2.0 3.0 0.01 0.22 0.01 95 1011.7
20260507091804 56 291 2.0 3.0 0.01 0.22 0.01 95 1011.2
20260507091303 57 286 2.0 3.0 0.01 0.22 0.01 94 1011.2
20260507090807 57 66 0.0 0.0 0.01 0.22 0.01 94 1011.1
20260507085807 58 86 1.0 3.0 0.01 0.22 0.01 92 1011.0
20260507084808 58 101 0.0 1.0 0.01 0.22 0.01 92 1011.1
20260507084307 58 101 0.0 1.0 0.00 0.21 0.00 92 1011.1
20260507083307 58 101 1.0 2.0 0.00 0.21 0.00 92 1011.3
20260507082807 58 97 1.0 2.0 0.00 0.21 0.00 92 1011.2
20260507082307 58 73 1.0 2.0 0.00 0.21 0.00 92 1011.1
20260507081807 58 68 2.0 3.0 0.00 0.21 0.00 92 1011.1
20260507081307 58 66 2.0 3.0 0.00 0.21 0.00 92 1011.4
20260507080808 58 66 0.0 1.0 0.00 0.21 0.00 92 1011.8
20260507080308 58 66 0.0 0.0 0.00 0.21 0.00 92 1011.9
20260507075807 58 66 0.0 3.0 0.00 0.21 0.00 91 1011.7
20260507074807 58 66 2.0 3.0 0.00 0.21 0.00 91 1011.4
20260507074307 58 74 3.0 3.0 0.00 0.21 0.00 92 1011.4
20260507073807 57 109 0.0 5.0 0.00 0.21 0.00 93 1011.7
20260507073307 57 181 2.0 5.0 0.00 0.21 0.00 93 1011.7
20260507072308 57 153 1.0 2.0 0.00 0.21 0.00 93 1011.7
20260507071807 57 135 1.0 2.0 0.00 0.21 0.00 93 1011.9
20260507071307 57 136 1.0 3.0 0.00 0.21 0.00 92 1011.4
20260507070807 57 72 2.0 3.0 0.00 0.21 0.00 92 1011.4
20260507070307 57 24 1.0 2.0 0.00 0.21 0.00 91 1011.6
20260507065308 59 49 2.0 5.0 0.00 0.21 0.00 87 1011.3
20260507064807 59 261 1.0 8.0 0.00 0.21 0.00 86 1011.0
20260507064307 59 270 4.0 9.0 0.00 0.21 0.00 86 1011.5
20260507063807 59 265 3.0 9.0 0.00 0.21 0.00 87 1011.4
20260507063307 59 263 2.0 7.0 0.00 0.21 0.00 88 1011.5
20260507062807 57 267 4.0 7.0 0.00 0.21 0.00 92 1011.7
20260507062307 58 270 2.0 5.0 0.00 0.21 0.00 90 1011.8
20260507061807 58 290 2.0 3.0 0.00 0.21 0.00 88 1011.8
20260507061307 58 101 0.0 1.0 0.00 0.21 0.00 88 1011.3
20260507060807 58 108 0.0 2.0 0.00 0.21 0.00 87 1011.1
20260507060307 58 111 1.0 3.0 0.00 0.21 0.00 88 1011.5
20260507055807 59 62 2.0 5.0 0.00 0.21 0.00 88 1011.6
20260507055307 59 139 0.0 3.0 0.00 0.21 0.00 87 1011.9
20260507054807 59 99 1.0 3.0 0.00 0.21 0.00 87 1011.9
20260507054307 59 149 0.0 3.0 0.00 0.21 0.00 88 1011.9
20260507053807 58 190 2.0 3.0 0.00 0.21 0.00 89 1012.6
20260507053307 58 355 1.0 2.0 0.00 0.21 0.00 90 1012.6
20260507052807 58 354 0.0 0.0 0.00 0.21 0.00 90 1012.4
20260507052307 58 354 0.0 2.0 0.00 0.21 0.00 90 1012.4
20260507051807 58 354 0.0 2.0 0.00 0.21 0.00 89 1012.7
20260507051307 59 310 1.0 3.0 0.00 0.21 0.00 87 1012.5
20260507050807 60 316 1.0 6.0 0.00 0.21 0.00 86 1012.1
20260507050307 60 287 4.0 14.0 0.00 0.21 0.00 85 1012.5
20260507045807 61 254 6.0 10.0 0.00 0.21 0.00 83 1011.9
20260507044807 60 267 2.0 5.0 0.00 0.21 0.00 81 1012.6
20260507044307 60 255 3.0 6.0 0.00 0.21 0.00 84 1012.4
20260507043807 60 270 4.0 8.0 0.00 0.21 0.00 84 1012.3
20260507043307 60 275 4.0 8.0 0.00 0.21 0.00 84 1012.4
20260507042807 61 278 4.0 8.0 0.00 0.21 0.00 83 1012.5
20260507042307 60 239 5.0 8.0 0.00 0.21 0.00 83 1012.1
20260507041807 60 272 5.0 10.0 0.00 0.21 0.00 83 1012.4
20260507041307 60 289 6.0 10.0 0.00 0.21 0.00 84 1012.2
20260507040807 60 234 4.0 8.0 0.00 0.21 0.00 85 1012.3
20260507040307 59 238 2.0 8.0 0.00 0.21 0.00 86 1012.7
20260507035806 59 253 5.0 7.0 0.00 0.21 0.21 87 1013.2
20260507035307 59 260 3.0 9.0 0.01 0.21 0.21 88 1012.7
20260507034307 59 258 1.0 2.0 0.01 0.21 0.21 90 1012.8
20260507033806 59 257 0.0 5.0 0.01 0.21 0.21 91 1012.7
20260507033306 60 301 2.0 6.0 0.02 0.21 0.21 90 1012.7
20260507032807 60 313 3.0 6.0 0.02 0.21 0.21 90 1012.6
20260507032307 60 34 0.0 2.0 0.02 0.21 0.21 89 1012.6
20260507031807 60 23 1.0 3.0 0.02 0.21 0.21 88 1012.6
20260507031306 60 267 2.0 6.0 0.02 0.21 0.21 87 1012.4